Location: St. Louis
(38.6270°N, 90.1994°W)
Time: 22:57:05
(UTC-06:00)

METEOR M2 - Visible Passes

Search period start: 26 January 2022 00:00
Search period end: 05 February 2022 00:00
Orbit: 818 x 827 km, 98.4° (Epoch: 26 January)

Date Brightness Start Highest point End Pass type
(mag) Time Alt. Az. Time Alt. Az. Time Alt. Az.
26 Jan ? 06:10:21 10° NE 06:14:04 19° E 06:17:47 10° SE visible
26 Jan ? 19:10:49 10° SSW 19:15:42 36° W 19:20:37 10° NNW visible
27 Jan ? 05:52:02 10° ENE 05:53:55 12° E 05:55:48 10° ESE visible
27 Jan ? 18:50:28 10° S 18:55:42 56° W 19:00:58 10° NNW visible
28 Jan ? 18:30:24 10° SSE 18:35:45 86° WSW 18:41:09 10° NNW visible
29 Jan ? 18:10:36 10° SSE 18:15:52 63° ENE 18:21:10 10° N visible
29 Jan ? 19:53:29 10° SW 19:56:26 15° W 19:59:25 10° WNW visible
30 Jan ? 06:30:03 10° NE 06:34:43 29° E 06:39:22 10° SSE visible
30 Jan ? 17:51:04 10° SE 17:56:02 41° ENE 18:01:02 10° N visible
30 Jan ? 19:32:08 10° SW 19:36:19 23° W 19:40:32 10° NW visible
31 Jan ? 06:10:50 10° NE 06:14:39 19° E 06:18:25 10° SE visible
31 Jan ? 19:11:24 10° SSW 19:16:15 35° W 19:21:09 10° NNW visible
01 Feb ? 05:52:25 10° ENE 05:54:30 12° E 05:56:33 10° ESE visible
01 Feb ? 18:51:02 10° S 18:56:15 54° W 19:01:30 10° NNW visible
02 Feb ? 18:30:57 10° SSE 18:36:18 84° WSW 18:41:41 10° NNW visible
03 Feb ? 18:11:08 10° SSE 18:16:24 65° ENE 18:21:43 10° N visible
03 Feb ? 19:54:08 10° WSW 19:57:00 14° W 19:59:52 10° WNW visible
04 Feb ? 06:30:35 10° NE 06:35:17 30° E 06:39:58 10° SSE visible
04 Feb ? 17:51:34 10° SE 17:56:34 42° ENE 18:01:36 10° N visible
04 Feb ? 19:32:45 10° SW 19:36:53 23° W 19:41:02 10° NW visible
